[[{"header":{"parameterUnit":"m.s-1","parameterCategory":1,"la1":30.2991,"la2":30.254,"lo1":-89.0895,"lo2":-89.0444,"dy":0.0017,"dx":0.0017,"nx":28,"ny":28,"refTime":"2023-10-31T03:00:00:Z","depth":0,"parameterNumber":2,"parameterNumberName":"U-component_of_WINDS"},"data":[0,0,0,0,0,0,0,0,0,0,0,0,0,0,0,0,0,0,0,0,0,0,0,0,0,0,0,0,0,0,0,0,0,0,0,0,0,0,0,0,0,0,0,0,0,0,0,0,0,0,0,0,0,0,0,0,0,0,1.5499,1.5498,0,1.5467,1.5467,1.5467,1.5443,1.5442,1.5442,1.5442,1.5408,1.5407,1.5407,0,0,0,0,0,0,0,0,0,0,0,0,0,1.5537,1.5537,1.5499,1.5498,1.5498,1.5468,1.5467,1.5467,1.5443,1.5442,1.5442,1.5442,1.5408,1.5407,1.5407,0,0,0,0,0,0,0,0,0,0,0,0,0,1.5515,1.5536,1.5499,1.5482,1.5481,1.5468,1.5467,1.5467,1.5443,1.5442,1.5442,1.5442,1.5409,1.5408,1.5406,1.5407,0,0,1.5403,1.5403,0,0,0,0,0,0,0,0,1.5516,1.5513,1.5485,1.5484,1.5482,1.5459,1.5468,1.5446,1.5443,1.5457,1.5442,1.5442,1.5425,1.5423,1.5417,1.5405,1.5404,1.5403,1.5403,1.5402,1.5402,0,0,0,0,0,0,0,1.5518,1.5514,1.5486,1.5485,1.5483,1.5476,1.5473,1.5464,1.5443,1.5456,1.5454,1.5451,1.5424,1.5418,1.5416,1.5403,1.5403,1.5402,1.5402,1.5401,1.5391,1.5391,0,0,0,0,0,0,1.5522,1.5516,1.5487,1.5485,1.5498,1.5476,1.5472,1.5466,1.5443,1.5439,1.5451,1.545,1.542,1.5418,1.5415,1.5414,1.5402,1.5401,1.5401,1.539,1.5391,1.5391,0,0,0,0,0,0,1.5523,1.552,1.5489,1.55,1.5496,1.5476,1.5469,1.5466,1.546,1.544,1.5436,1.5449,1.542,1.5417,1.5409,1.5413,1.5401,1.54,1.539,1.539,1.5391,1.5412,0,0,0,0,0,0,1.5524,1.552,1.552,1.55,1.5495,1.5483,1.547,1.5465,1.5459,1.5457,1.5437,1.5433,1.5419,1.5411,1.5408,1.5411,1.5399,1.5389,1.539,1.5391,1.5411,1.5413,1.5415,0,0,0,0,0,1.5525,1.5526,1.552,1.5517,1.5495,1.5484,1.5481,1.5465,1.5459,1.5459,1.5446,1.5434,1.5413,1.541,1.5407,1.541,1.5389,1.539,1.5391,1.541,1.5413,1.5415,0,0,0,0,0,0,1.5545,1.5523,1.5516,1.5511,1.55,1.548,1.5478,1.5469,1.5458,1.5456,1.5437,1.5433,1.5428,1.5418,1.5416,1.5409,1.54,1.54,1.5415,1.5418,1.542,1.5422,1.5398,0,0,0,0,0,1.555,1.5543,1.5524,1.5521,1.5516,1.5499,1.5493,1.5482,1.547,1.5464,1.5451,1.5438,1.5429,1.5423,1.5413,1.541,1.5405,1.541,1.5412,1.5414,1.5414,1.5412,1.5414,1.5394,1.5394,1.5394,0,0,1.5557,1.5544,1.5541,1.5525,1.5515,1.5508,1.5494,1.5487,1.5482,1.5463,1.5455,1.5445,1.543,1.5425,1.5422,1.5417,1.5419,1.5415,1.5417,1.5416,1.5413,1.5415,1.5417,1.5394,1.5394,1.5394,0,0,1.5568,1.5558,1.5554,1.5545,1.5531,1.5519,1.5519,1.5501,1.5494,1.5486,1.5472,1.5466,1.545,1.544,1.5433,1.5443,1.5431,1.544,1.5451,1.5449,1.5451,1.5452,1.5455,1.5457,1.544,1.5441,1.5441,0,1.5579,1.5569,1.5554,1.5548,1.5542,1.5526,1.5522,1.5514,1.5497,1.5493,1.5487,1.5468,1.5457,1.545,1.5452,1.5447,1.5446,1.5441,1.5452,1.5453,1.5454,1.5457,1.5458,1.5442,1.5442,1.5441,1.5441,0,1.5583,1.5576,1.5576,1.5561,1.5554,1.555,1.5534,1.553,1.552,1.551,1.5503,1.5489,1.5477,1.5475,1.5465,1.5467,1.5464,1.5456,1.5445,1.5457,1.546,1.5461,1.5443,1.5443,1.5443,1.5442,0,0,1.5603,1.5582,1.5582,1.5575,1.5559,1.5553,1.5549,1.5538,1.5534,1.5523,1.5519,1.5507,1.55,1.5492,1.5482,1.548,1.5489,1.5472,1.5472,1.5476,1.549,1.5496,1.5497,1.5482,1.5483,1.5483,1.5491,0,1.5611,1.5602,1.5589,1.5585,1.5578,1.5564,1.556,1.555,1.5541,1.5534,1.5523,1.5515,1.5507,1.5502,1.55,1.5488,1.5492,1.5488,1.5478,1.5477,1.5481,1.5499,1.5504,1.5513,1.5492,1.5492,1.5492,0,1.5618,1.5609,1.5604,1.5589,1.5586,1.5583,1.5573,1.5567,1.5555,1.5548,1.5541,1.553,1.5525,1.5517,1.5509,1.5507,1.5502,1.5496,1.5496,1.5494,1.5485,1.5496,1.5515,1.5516,1.5494,1.5494,1.5494,0,1.5633,1.562,1.5615,1.561,1.5593,1.5591,1.5584,1.5572,1.5567,1.5558,1.5554,1.5545,1.5539,1.5532,1.5519,1.5515,1.5513,1.5504,1.5507,1.5508,1.5506,1.5506,1.5524,1.5505,1.5505,1.5505,1.5505,0,1.5642,1.5639,1.5622,1.5619,1.5616,1.5602,1.5599,1.5591,1.5581,1.5576,1.5563,1.5559,1.5543,1.5537,1.5527,1.5522,1.552,1.5514,1.5511,1.5515,1.5515,1.551,1.5509,1.5505,1.5505,1.5505,1.5505,0,1.5657,1.5645,1.5639,1.5625,1.5621,1.5619,1.5607,1.5603,1.5594,1.5589,1.5586,1.5572,1.5564,1.5551,1.5539,1.5533,1.553,1.5526,1.5534,1.5532,1.5536,1.5535,1.555,1.5552,1.5533,1.5533,1.5533,0,1.5663,1.5661,1.5646,1.5643,1.5636,1.563,1.5625,1.5612,1.5607,1.5595,1.5594,1.5585,1.5578,1.5567,1.5555,1.5546,1.5541,1.5547,1.5539,1.5543,1.5541,1.554,1.554,1.5548,1.5549,1.5549,1.5549,0,1.5675,1.5669,1.5663,1.5655,1.5649,1.5642,1.5634,1.5632,1.5617,1.5612,1.5605,1.5599,1.5589,1.558,1.5571,1.5563,1.5554,1.5552,1.5552,1.5555,1.5559,1.5557,1.5538,1.5551,1.5551,1.5551,1.5551,1.555,1.5685,1.5683,1.5672,1.5666,1.5659,1.5652,1.5649,1.564,1.5634,1.5624,1.5617,1.561,1.56,1.5586,1.558,1.5574,1.557,1.557,1.557,1.557,1.5571,1.5562,1.5573,1.5573,1.5572,1.5572,1.5572,0,1.5696,1.5689,1.5683,1.5673,1.5668,1.5661,1.5652,1.5649,1.5643,1.5635,1.5628,1.562,1.5613,1.5602,1.5593,1.5591,1.5587,1.559,1.5589,1.5588,1.5576,1.5576,1.5593,1.5593,1.5593,1.5593,1.5593,1.5593,1.57,1.5696,1.569,1.5683,1.5676,1.567,1.5666,1.566,1.5653,1.5645,1.5639,1.5632,1.5623,1.5614,1.5608,1.5604,1.5602,1.5606,1.5601,1.559,1.5588,1.5586,1.5587,1.5605,1.5605,1.5613,1.5613,1.5613]},{"header":{"parameterUnit":"m.s-1","parameterCategory":1,"la1":30.2991,"la2":30.254,"lo1":-89.0895,"lo2":-89.0444,"dy":0.0017,"dx":0.0017,"nx":28,"ny":28,"refTime":"2023-10-31T03:00:00:Z","depth":0,"parameterNumber":3,"parameterNumberName":"V-component_of_WINDS"},"data":[0,0,0,0,0,0,0,0,0,0,0,0,0,0,0,0,0,0,0,0,0,0,0,0,0,0,0,0,0,0,0,0,0,0,0,0,0,0,0,0,0,0,0,0,0,0,0,0,0,0,0,0,0,0,0,0,0,0,-8.3986,-8.3988,0,-8.4181,-8.4183,-8.4186,-8.4117,-8.4113,-8.4109,-8.4105,-8.4299,-8.4307,-8.4317,0,0,0,0,0,0,0,0,0,0,0,0,0,-8.3551,-8.3559,-8.3986,-8.3989,-8.3991,-8.4181,-8.4184,-8.4186,-8.4118,-8.4113,-8.4108,-8.4103,-8.4296,-8.4306,-8.4317,0,0,0,0,0,0,0,0,0,0,0,0,0,-8.3742,-8.3562,-8.3986,-8.398,-8.3982,-8.418,-8.4184,-8.4187,-8.4119,-8.4113,-8.4106,-8.41,-8.4292,-8.4305,-8.4319,-8.4533,0,0,-8.4361,-8.4367,0,0,0,0,0,0,0,0,-8.3731,-8.3758,-8.3979,-8.3981,-8.3983,-8.4118,-8.4101,-8.4303,-8.4121,-8.4067,-8.4105,-8.4097,-8.4244,-8.4261,-8.4311,-8.4542,-8.455,-8.4362,-8.4371,-8.4376,-8.438,0,0,0,0,0,0,0,-8.3718,-8.3749,-8.4063,-8.3982,-8.3985,-8.3966,-8.3986,-8.4139,-8.4189,-8.4071,-8.4067,-8.4091,-8.4243,-8.4298,-8.4315,-8.4553,-8.4362,-8.4374,-8.4383,-8.4388,-8.4971,-8.4978,0,0,0,0,0,0,-8.3704,-8.3739,-8.4057,-8.4069,-8.3839,-8.398,-8.4002,-8.4081,-8.4187,-8.4197,-8.4096,-8.4087,-8.4278,-8.4299,-8.4322,-8.4581,-8.4376,-8.4389,-8.4397,-8.4964,-8.4972,-8.498,0,0,0,0,0,0,-8.3695,-8.3734,-8.4049,-8.3903,-8.3942,-8.3994,-8.4084,-8.4089,-8.4143,-8.4206,-8.4214,-8.4144,-8.4274,-8.4303,-8.4482,-8.4587,-8.4395,-8.4408,-8.4955,-8.4966,-8.4976,-8.51,0,0,0,0,0,0,-8.3683,-8.3731,-8.3814,-8.3905,-8.395,-8.4208,-8.409,-8.4097,-8.4168,-8.4158,-8.4253,-8.4262,-8.4271,-8.4462,-8.4496,-8.4602,-8.4419,-8.4946,-8.496,-8.4973,-8.5087,-8.5114,-8.5137,0,0,0,0,0,-8.3668,-8.3839,-8.3818,-8.3857,-8.4055,-8.4214,-8.4239,-8.4247,-8.4177,-8.426,-8.43,-8.4259,-8.457,-8.4481,-8.4518,-8.463,-8.4939,-8.4956,-8.4972,-8.5075,-8.5108,-8.5136,0,0,0,0,0,0,-8.3756,-8.3851,-8.3829,-8.4035,-8.4117,-8.4202,-8.4307,-8.4282,-8.4384,-8.437,-8.4374,-8.4396,-8.4581,-8.4623,-8.4522,-8.4844,-8.4744,-8.4768,-8.481,-8.4841,-8.4866,-8.4852,-8.443,0,0,0,0,0,-8.38,-8.3922,-8.3998,-8.4172,-8.4215,-8.4255,-8.4324,-8.4324,-8.4408,-8.4442,-8.4495,-8.4577,-8.4693,-8.4769,-8.4879,-8.5092,-8.5112,-8.5188,-8.5213,-8.5233,-8.5254,-8.5371,-8.5406,-8.5034,-8.5034,-8.5033,0,0,-8.389,-8.3958,-8.4034,-8.4192,-8.4255,-8.4382,-8.4284,-8.4421,-8.4514,-8.4462,-8.4635,-8.4677,-8.4769,-8.4967,-8.5056,-8.5008,-8.5362,-8.5254,-8.527,-8.528,-8.5391,-8.5427,-8.5458,-8.5045,-8.5043,-8.5041,0,0,-8.4121,-8.4184,-8.4337,-8.4404,-8.4502,-8.4527,-8.4564,-8.4654,-8.4681,-8.4855,-8.4819,-8.4929,-8.5129,-8.5196,-8.5257,-8.5515,-8.5481,-8.555,-8.5681,-8.5795,-8.5824,-8.585,-8.5943,-8.5976,-8.5571,-8.5571,-8.5572,0,-8.4221,-8.4411,-8.4418,-8.456,-8.463,-8.4591,-8.4746,-8.4809,-8.4938,-8.4987,-8.4931,-8.5183,-8.5241,-8.5455,-8.5518,-8.5568,-8.561,-8.554,-8.5819,-8.5846,-8.587,-8.5959,-8.5994,-8.5579,-8.5578,-8.5578,-8.5577,0,-8.453,-8.4662,-8.4774,-8.4902,-8.4985,-8.5132,-8.5161,-8.5244,-8.5237,-8.5267,-8.5446,-8.5515,-8.564,-8.569,-8.5683,-8.5903,-8.587,-8.5817,-8.5717,-8.5913,-8.5997,-8.6031,-8.5591,-8.5588,-8.5585,-8.5584,0,0,-8.482,-8.4953,-8.4994,-8.5052,-8.5158,-8.526,-8.5405,-8.5529,-8.5601,-8.5691,-8.5812,-8.5983,-8.5936,-8.6004,-8.6005,-8.6105,-8.6306,-8.6039,-8.6041,-8.6087,-8.6554,-8.6594,-8.6633,-8.6284,-8.629,-8.6296,-8.6546,0,-8.506,-8.5318,-8.533,-8.5564,-8.5686,-8.5652,-8.5778,-8.5857,-8.589,-8.5997,-8.6032,-8.6154,-8.6081,-8.6123,-8.622,-8.6261,-8.64,-8.6243,-8.6397,-8.6402,-8.6376,-8.6676,-8.6719,-8.6952,-8.6579,-8.6584,-8.6588,0,-8.5374,-8.5478,-8.5725,-8.5816,-8.5867,-8.5981,-8.6096,-8.62,-8.6288,-8.6305,-8.6383,-8.6369,-8.6517,-8.6412,-8.6615,-8.6509,-8.6572,-8.6602,-8.6611,-8.6626,-8.6507,-8.67,-8.7026,-8.7062,-8.6639,-8.6635,-8.6632,0,-8.5563,-8.5763,-8.5938,-8.5988,-8.6098,-8.6179,-8.6228,-8.631,-8.6384,-8.6484,-8.6533,-8.6648,-8.6711,-8.68,-8.6817,-8.6739,-8.7022,-8.6917,-8.7039,-8.7039,-8.7101,-8.7097,-8.7443,-8.7141,-8.714,-8.7139,-8.7139,0,-8.583,-8.5983,-8.6024,-8.6131,-8.6301,-8.6313,-8.648,-8.6523,-8.6597,-8.6711,-8.6687,-8.6794,-8.681,-8.6921,-8.6935,-8.7102,-8.713,-8.7148,-8.715,-8.7151,-8.7149,-8.7193,-8.7177,-8.7149,-8.7147,-8.7145,-8.7143,0,-8.607,-8.6104,-8.6291,-8.6381,-8.6407,-8.6529,-8.6604,-8.6707,-8.6737,-8.6882,-8.6916,-8.6964,-8.7094,-8.712,-8.7272,-8.7282,-8.7481,-8.7466,-8.7452,-8.7451,-8.7572,-8.7561,-8.7959,-8.8012,-8.7674,-8.7678,-8.768,0,-8.6239,-8.6356,-8.6459,-8.6535,-8.6589,-8.6711,-8.6787,-8.6803,-8.6883,-8.6994,-8.7083,-8.721,-8.7313,-8.7521,-8.7568,-8.7685,-8.7673,-8.7805,-8.769,-8.7688,-8.7677,-8.767,-8.7682,-8.7827,-8.783,-8.7833,-8.7836,0,-8.6535,-8.6546,-8.6658,-8.6778,-8.6871,-8.6964,-8.7053,-8.7116,-8.7144,-8.7235,-8.7369,-8.7449,-8.7606,-8.7733,-8.785,-8.7898,-8.7873,-8.7872,-8.7906,-8.7909,-8.7896,-8.7906,-8.7513,-8.7862,-8.786,-8.7858,-8.7856,-8.7855,-8.6745,-8.6848,-8.6938,-8.7064,-8.7133,-8.7217,-8.7319,-8.7363,-8.7476,-8.7607,-8.7608,-8.7754,-8.784,-8.7995,-8.8051,-8.8164,-8.8123,-8.8172,-8.8185,-8.8198,-8.821,-8.7878,-8.8185,-8.8185,-8.8184,-8.8183,-8.8183,0,-8.7041,-8.7097,-8.7213,-8.734,-8.744,-8.7409,-8.7506,-8.7591,-8.772,-8.7803,-8.7906,-8.806,-8.8183,-8.8241,-8.8362,-8.8442,-8.8433,-8.8473,-8.8468,-8.848,-8.8239,-8.8198,-8.8479,-8.8479,-8.8479,-8.8478,-8.8478,-8.8478,-8.7207,-8.738,-8.7403,-8.761,-8.7664,-8.781,-8.7868,-8.7946,-8.8012,-8.8186,-8.8289,-8.8327,-8.84,-8.8527,-8.8638,-8.8652,-8.8698,-8.8744,-8.8752,-8.8526,-8.8496,-8.8468,-8.8429,-8.8754,-8.8754,-8.8983,-8.8986,-8.8987]}]]